Weather History for LKPO - December, 2012

Change the Weather History Date:

Sunday, December 9, 2012

  Actual Average Record
Temperature  
Mean Temperature 12 °F -  
Max Temperature 21 °F - - ()
Min Temperature 3 °F - - ()
Degree Days  
Heating Degree Days 53    
Moisture  
Dew Point 9 °F    
Average Humidity 86    
Maximum Humidity 93    
Minimum Humidity 74    
Precipitation  
Precipitation 0.00 in - - ()
Sea Level Pressure  
Sea Level Pressure 30.06 in    
Wind  
Wind Speed 2 mph ()    
Max Wind Speed 9 mph    
Max Gust Speed -    
Visibility 2.4 miles    
Events Fog , Snow    
T = Trace of Precipitation, MM = Missing Value Source: Averaged Metar Reports

Daily Weather History Graph

Daily Weather History Graph

Search for Another Location

Airport or City:

Trip Planner

Search our weather history database for the weather conditions in past years. The results will help you decide how hot, cold, wet, or windy it might be!

Date:

Astronomy

Dec. 09, 2012 Rise Set
Actual Time 7:34 AM CET 3:51 PM CET
Civil Twilight 6:56 AM CET 4:28 PM CET
Nautical Twilight 6:16 AM CET 5:09 PM CET
Astronomical Twilight 5:37 AM CET 5:48 PM CET
Moon 2:27 AM CET (12/9) 1:03 PM CET (12/9)
Length of Visible Light 9h 31m
Length of Day
8h 16m
Waning Crescent, 21% of the Moon is Illuminated
Dec 9
Waning Crescent
Dec 13
New
Dec 20
First Quarter
Dec 28
Full
Jan 5
Last Quarter

Hourly Weather History & Observations

Time (CET) Temp. Windchill Dew Point Humidity Pressure Visibility Wind Dir Wind Speed Gust Speed Precip Events Conditions
12:00 AM 6.8 °F - 3.2 °F 85% 30.18 in 2.2 mi NW 2.3 mph - N/A   Mist
1:00 AM 8.6 °F - 5.0 °F 85% 30.18 in 2.8 mi Calm Calm - N/A   Mist
2:00 AM 6.8 °F - 5.0 °F 92% 30.18 in 2.8 mi Calm Calm - N/A   Mist
3:00 AM 6.8 °F - 3.2 °F 85% 30.15 in 2.8 mi NNW 2.3 mph - N/A   Mist
5:00 AM 5.0 °F - 3.2 °F 92% 30.15 in 2.8 mi West 1.2 mph - N/A   Mist
6:00 AM 5.0 °F - 1.4 °F 85% 30.15 in 2.8 mi Calm Calm - N/A   Mist
7:00 AM 5.0 °F - 1.4 °F 85% 30.18 in 2.5 mi South 1.2 mph - N/A   Mist
7:33 AM 5.0 °F -2.1 °F 1.4 °F 85% 30.15 in 1.6 mi East 3.5 mph - N/A   Mist
8:00 AM 3.2 °F - -0.4 °F 85% 30.15 in 1.6 mi Calm Calm - N/A   Mist
9:00 AM 6.8 °F - 3.2 °F 85% 30.15 in 1.6 mi Calm Calm - N/A   Partly Cloudy
10:00 AM 10.4 °F - 6.8 °F 85% 30.15 in 1.7 mi Calm Calm - N/A Fog Mist
11:00 AM 12.2 °F - 10.4 °F 92% 30.12 in 1.7 mi SSW 1.2 mph - N/A   Mist
11:31 AM 14.0 °F - 12.2 °F 93% 30.12 in 1.9 mi Calm Calm - N/A   Mist
12:00 PM 15.8 °F - 12.2 °F 86% 30.09 in 2.2 mi Calm Calm - N/A   Mist
1:00 PM 17.6 °F - 14.0 °F 86% 30.06 in - West 1.2 mph - N/A   Mist
2:00 PM 21.2 °F - 14.0 °F 74% 30.04 in 2.8 mi Calm Calm - N/A   Mist
3:00 PM 19.4 °F - 14.0 °F 80% 30.01 in - South 2.3 mph - N/A   Mist
4:00 PM 17.6 °F 10.7 °F 14.0 °F 86% 30.01 in - South 4.6 mph - N/A   Mist
5:00 PM 17.6 °F 10.7 °F 14.0 °F 86% 29.98 in - South 4.6 mph - N/A   Mist
6:00 PM 17.6 °F - 14.0 °F 86% 29.95 in 2.5 mi Variable 2.3 mph - N/A   Mist
7:00 PM 17.6 °F 9.3 °F 14.0 °F 86% 29.92 in 2.8 mi South 5.8 mph - N/A   Mist
8:00 PM 19.4 °F 11.5 °F 14.0 °F 80% 29.89 in 2.8 mi South 5.8 mph - N/A   Overcast
9:00 PM 19.4 °F 9.5 °F 15.8 °F 86% 29.86 in 2.8 mi South 8.1 mph - N/A   Overcast
10:00 PM 21.2 °F 10.9 °F 17.6 °F 86% 29.83 in 2.2 mi South 9.2 mph - N/A Snow Light Snow
11:00 PM 21.2 °F 11.7 °F 17.6 °F 86% 29.83 in 2.5 mi South 8.1 mph - N/A Snow Light Snow